星链-30477 (STARLINK-30477 )

导读

STARLINK-30477是美国太空探索技术公司(SpaceX)星链互联网卫星网络的一员,于2023年9月20日发射入轨。星链计划旨在搭建全球卫星互联网,为全球偏远地区、海上航线等场景提供高速互联网接入服务,该卫星持续在轨运行,助力星链星座组网与服务覆盖完善。

基本信息
目录编号:
57912
目录名称:
STARLINK-30477
国际标识:
2023-146X
轨道中心:
EARTH
卫星名称:
星链-30477
卫星全名:
星链-30477 (STARLINK-30477 )
卫星状态:
在轨 (已飞行1004 天)
发射日期:
2023-09-20 UTC
国别 :
美国 (US)
星等 :
--
轨道信息
数据来源 国际轨道数据 AOE轨道数据
星历时间 2026-06-19T12:50:42+0800
1天前
查看轨道信息
2026-06-15T01:00:00+0800
5天前
查看轨道信息
半长轴 6861.213km 6861.14km
偏心率 0.000144 0.0001289
轨道倾角 43.003° 43.002°
近地点辐角 259.875° 280.782°
升交点赤经 97.298° 122.678°
平近点角 100.194° 179.043°
近地点 482.087km 482.118km
远地点 484.065km 483.888km
周期 94.267分钟 94.266分钟
每日圈数 15.275712 15.275957
详细信息
固有亮度:
5
最大亮度:
0.3
卫星平台:
Starlink v2.0 mini
覆盖范围:
全球
运营商:
太空探索技术公司
运营商所在国:
美国
制造商(研发单位):
太空探索技术公司
制造商所在国:
美国
使用方式:
暂无
卫星简介
星链(Starlink)计划是由太空探索技术公司(SpaceX)提出的一个巨型低轨卫星互联网星座项目,计划在2019年至2024年间在太空搭建由约1.2万颗卫星组成的“星链”网络,其中1584颗将部署在地球上空550千米处的近地轨道,并从2020年开始工作。该卫星仍在工作。
2D轨道图
3D轨道图
轨道高度分析图
轨道倾角分析图
轨道综合分析图
查看轨道综合分析图